Location: Alta Marina
(43.6500°N, 13.3333°E)
Time: 13:30:54
(UTC+00:00)

Daily predictions for brighter satellites

Satellite Brightness Start Highest point End
(mag) Time Altitude Azimuth Time Altitude Azimuth Time Altitude Azimuth
STARLINK-1239 3.5 17:56:05 10° SW 18:00:09 82° SE 18:04:12 10° ENE
CSL-04 Debris 4.5 17:55:48 10° S 18:01:17 76° WSW 18:06:48 10° NNW
STARLINK-1126 4.0 17:57:58 10° NW 18:01:57 50° NNE 18:05:55 10° ESE
BREEZE-M DEB (TANK) 3.3 17:54:06 10° SW 18:02:43 47° SSE 18:05:45 10° ENE
Ariane Rocket 3.3 17:59:04 10° SE 18:03:56 49° ENE 18:08:50 10° N
STARLINK-1240 3.6 18:00:47 10° SW 18:04:51 88° SSE 18:08:55 10° NE
SJ-6B 4.1 18:02:09 10° ESE 18:05:30 25° ENE 18:08:54 10° NNE
Cosmos 1733 3.3 18:02:26 10° S 18:06:06 53° E 18:09:48 10° NNE
SJ-11-01 4.4 18:01:37 10° SSE 18:06:12 56° ENE 18:10:49 10° N
STARLINK-1082 3.9 18:02:30 10° NW 18:06:30 54° NNE 18:10:29 10° ESE
Meteor 1-22 Rocket 4.1 18:03:11 10° S 18:08:23 59° E 18:13:34 10° NNE
ARGOS Delta rocket 4.2 18:04:07 10° SSE 18:09:04 55° ENE 18:14:17 10° N
STARLINK-1216 3.6 18:05:32 10° SW 18:09:35 86° NW 18:13:39 10° NE
IRS-1A Rocket 4.5 18:04:28 10° SE 18:09:57 55° ENE 18:15:35 10° N
Cosmos 1553 Rocket 4.2 18:05:07 10° SSW 18:11:10 75° W 18:17:17 10° N
Cosmos 1674 2.9 18:07:34 10° NNW 18:11:20 74° W 18:15:01 10° S
STARLINK-1100 3.8 18:07:20 10° NW 18:11:22 57° NNE 18:15:10 11° ESE
Cosmos 1110 Rocket 4.0 18:06:15 10° NNW 18:11:32 77° ENE 18:16:43 10° SSE
STARLINK-1237 3.7 18:10:18 10° WSW 18:14:21 80° NW 18:18:25 10° NE
STARLINK-1083 3.8 18:12:05 10° NW 18:16:08 61° NNE 18:19:44 13° ESE
Cosmos 1939 Rocket 4.5 18:12:48 10° SSW 18:16:31 37° W 18:20:12 10° NNW
KORONAS-FOTON 4.2 18:14:32 10° NNW 18:18:20 66° W 18:22:05 10° S
STARLINK-1202 3.8 18:15:02 10° WSW 18:19:05 74° NNW 18:23:09 10° NE
Cosmos 1943 Rocket 3.3 18:14:33 10° N 18:19:07 25° NE 18:23:02 13° ESE
STARLINK-1125 3.7 18:16:39 10° NW 18:20:43 66° NNE 18:24:08 14° ESE
SL-14 R/B 3.5 18:18:29 10° N 18:22:28 51° ENE 18:26:22 10° SSE
SL-8 R/B 4.5 18:20:24 10° WNW 18:25:01 46° N 18:29:36 10° ENE
STARLINK-1109 3.6 18:21:23 10° NW 18:25:28 70° NNE 18:28:42 16° ESE
STARLINK-1246 3.9 18:22:06 10° WSW 18:26:10 66° NNW 18:30:16 10° NE
Cosmos 2315 Rocket 4.1 18:21:15 10° SSE 18:27:20 54° E 18:33:30 10° NNE
Cosmos 1766 4.1 18:23:55 10° SSW 18:27:51 56° W 18:31:47 10° N
STARLINK-1091 3.6 18:26:11 10° NW 18:30:17 76° NE 18:33:19 17° ESE
Orbus 7S? 4.1 18:28:17 10° WNW 18:30:44 28° SW 18:32:54 10° SSE
USA 234 3.4 18:25:40 10° NE 18:32:05 55° SE 18:38:27 10° SSW
ADEOS Rocket 4.2 18:25:39 10° N 18:32:09 51° WNW 18:38:00 10° SW
Meteor 2-8 Rocket 4.5 18:26:17 10° S 18:32:26 89° ESE 18:38:37 10° N
STARLINK-1066 3.2 18:29:26 10° WNW 18:32:34 63° SW 18:34:49 17° SE
STARLINK-1081 3.2 18:29:55 10° WNW 18:33:01 62° SW 18:35:12 17° SE
STARLINK-1224 4.1 18:29:24 10° WSW 18:33:25 59° NNW 18:37:26 10° NE
STARLINK-1070 3.2 18:30:23 10° WNW 18:33:28 62° SW 18:35:38 18° SE
STARLINK-1069 3.2 18:30:48 10° WNW 18:33:55 61° SW 18:36:06 18° SE
H-2A R/B 2.0 18:28:43 10° SSE 18:34:02 76° ENE 18:39:13 10° N
STARLINK-1085 3.2 18:31:14 10° WNW 18:34:22 61° SW 18:36:32 18° SE
STARLINK-1086 3.2 18:31:44 10° WNW 18:34:49 60° SW 18:36:56 18° SE
Cosmos 1626 2.0 18:31:15 10° N 18:34:58 68° E 18:38:38 10° SSE
STARLINK-1203 4.2 18:31:10 10° WSW 18:35:03 53° NNW 18:38:58 10° NE
Aureole 3 4.4 18:31:37 10° SSE 18:35:05 30° E 18:39:21 10° NNE
STARLINK-1095 3.2 18:32:11 10° WNW 18:35:16 59° SW 18:37:22 18° SE
STARLINK-1077 3.2 18:32:38 10° WNW 18:35:43 58° SW 18:37:48 18° SE
STARLINK-1075 3.3 18:33:06 10° WNW 18:36:10 58° SW 18:38:14 18° SE
STARLINK-1093 3.3 18:33:30 10° WNW 18:36:36 58° SW 18:38:42 18° SE
SL-16 R/B 2.1 18:31:04 10° SSW 18:36:43 77° ESE 18:42:23 10° NNE
STARLINK-1074 3.3 18:33:57 10° WNW 18:37:04 57° SW 18:39:08 19° SE
STARLINK-1087 3.3 18:34:26 10° WNW 18:37:30 56° SW 18:39:31 19° SE
STARLINK-1088 3.3 18:34:54 10° WNW 18:37:58 55° SW 18:39:58 19° SE
STARLINK-1225 4.2 18:34:03 10° WSW 18:38:03 56° NNW 18:42:05 10° NE
STARLINK-1115 3.4 18:35:19 10° WNW 18:38:25 55° SW 18:40:27 19° SE
SL-08 RB Rocket 3.9 18:34:24 10° SE 18:38:43 49° ENE 18:43:07 10° N
STARLINK-1076 3.4 18:35:46 10° WNW 18:38:52 54° SW 18:40:53 19° SSE
STARLINK-1092 3.4 18:36:13 10° WNW 18:39:19 54° SW 18:41:19 19° SSE
STARLINK-1080 3.4 18:36:42 10° WNW 18:39:46 53° SW 18:41:42 20° SSE
STARLINK-1090 3.4 18:37:09 10° WNW 18:40:13 52° SW 18:42:08 20° SSE
STARLINK-1072 3.5 18:36:30 10° NW 18:40:33 90° NNE 18:43:08 21° SE
Resurs 01 Rocket 2.9 18:38:55 19° E 18:40:34 23° ENE 18:44:03 10° NNE
STARLINK-1089 3.4 18:37:36 10° WNW 18:40:39 52° SW 18:42:33 20° SSE
STARLINK-1107 3.4 18:38:05 10° WNW 18:41:07 51° SW 18:43:00 20° SSE
TSX-5 4.4 18:36:43 10° NNW 18:41:57 53° NE 18:44:38 21° SE
STARLINK-1230 4.3 18:38:50 10° WSW 18:42:49 52° NNW 18:46:49 10° NE
Meteor 2-15 4.4 18:38:10 10° S 18:44:08 64° E 18:50:07 10° NNE
FREGAT/IRIS 2.4 18:42:08 10° S 18:44:51 77° W 18:47:34 10° NNW
STARLINK-1096 3.5 18:40:51 10° NW 18:44:54 84° SW 18:47:19 23° SE
STARLINK-1243 4.5 18:43:42 10° WSW 18:47:39 49° NNW 18:51:38 10° NE
Abrixas rocket 2.2 18:45:34 10° SW 18:48:24 45° SSE 18:49:06 36° ESE
Cosmos 1302 Rocket 4.0 18:43:38 10° NNW 18:48:56 78° ENE 18:53:41 13° SSE
Cosmos 1953 3.0 18:47:34 21° SE 18:49:32 33° E 18:53:06 10° NNE
STARLINK-1079 3.6 18:45:54 10° WNW 18:49:57 78° SW 18:52:10 25° SE
Cosmos 1709 Rocket 4.0 18:45:43 10° N 18:51:57 88° W 18:58:05 10° S
MONITOR-E 4.3 18:51:13 14° S 18:53:21 59° WSW 18:55:59 10° NNW
STARLINK-1116 3.6 18:50:20 10° WNW 18:54:22 72° SW 18:56:26 27° SE
SL-24 R/B 4.0 18:53:48 10° NNE 18:58:16 56° E 19:02:10 10° S
Cosmos 1603 4.3 18:53:45 10° SSE 18:58:43 33° ESE 19:03:40 10° NE
STARLINK-1102 4.4 18:56:42 10° NW 19:00:38 40° NNE 19:02:19 27° ENE
Cosmos 2251 Rocket 3.8 18:56:07 10° S 19:01:09 44° ESE 19:06:14 10° NNE
ISS -2.3 18:58:38 10° NW 19:01:38 29° NNE 19:02:41 24° NE
Cosmos 2297 4.0 18:57:45 10° NNW 19:03:23 68° WSW 19:08:44 12° SSE
STARLINK-1094 3.8 18:59:37 10° WNW 19:03:36 61° SW 19:05:21 31° SSE
Cosmos 2074 Rocket 4.3 18:58:48 10° N 19:04:51 47° ENE 19:08:17 25° SE
Cosmos 2084 Rocket 4.1 19:01:18 10° NNW 19:05:34 43° NE 19:06:58 33° E
STARLINK-1111 4.3 19:01:41 10° NW 19:05:39 42° NNE 19:07:06 30° ENE
Cosmos 2237 Rocket 4.4 19:02:00 10° WSW 19:06:42 26° NW 19:11:25 10° N
STARLINK-1117 4.0 19:04:29 10° WNW 19:08:27 55° SW 19:10:01 32° SSE
CZ-2C R/B 2.7 19:04:55 10° NNE 19:09:57 49° E 19:14:07 15° S
STARLINK-1073 4.2 19:06:40 10° NW 19:10:40 45° NNE 19:11:53 34° ENE
Cosmos 1626 Rocket 3.8 19:06:20 10° NNW 19:10:44 70° W 19:14:43 12° S
STARLINK-1078 4.1 19:08:56 10° WNW 19:12:53 51° SW 19:14:17 34° SSE
BREEZE-M DEB (TANK) 4.1 19:06:18 10° WNW 19:13:41 29° WSW 19:15:44 17° S
ARGOS 3.7 19:09:10 10° S 19:14:28 58° W 19:19:49 10° NNW
STARLINK-1121 4.1 19:11:37 10° NW 19:15:38 48° NNE 19:16:39 39° ENE
Cosmos 292 Rocket 3.8 19:12:28 10° NNW 19:17:12 57° ENE 19:18:32 42° ESE
STARLINK-1108 4.2 19:13:49 10° WNW 19:17:43 46° SW 19:18:58 34° S
Cosmos 1602 Rocket 3.7 19:14:17 10° NNW 19:18:45 74° W 19:21:45 20° S
IRIDIUM 104 4.2 19:14:54 10° N 19:20:09 81° E 19:23:42 21° S
STARLINK-1106 4.0 19:16:34 10° NW 19:20:37 51° NNE 19:21:25 44° ENE
USA 186 4.0 19:19:01 10° SSW 19:21:58 26° W 19:24:53 10° NW
STARLINK-1071 4.4 19:18:30 10° WNW 19:22:21 43° SW 19:23:26 34° S
MOS 1 Rocket 3.5 19:19:05 10° NNE 19:24:20 70° E 19:29:44 10° S
MetOp-A 4.1 19:21:25 21° S 19:25:07 83° WSW 19:30:31 10° NNW
STARLINK-1112 3.9 19:21:34 10° NW 19:25:39 55° NNE 19:26:14 49° ENE
STARLINK-1110 4.5 19:23:00 10° WNW 19:26:48 39° SW 19:27:43 34° S
CZ-2C R/B 4.2 19:22:16 10° SSW 19:27:00 39° W 19:31:35 10° NNW
IRIDIUM 114 4.3 19:24:03 10° N 19:29:18 84° W 19:32:51 21° S
STARLINK-1128 3.8 19:26:32 10° NW 19:30:38 59° NNE 19:31:01 56° ENE
Cosmos 1470 4.4 19:27:15 10° SW 19:30:48 35° WNW 19:34:25 10° N
SPOT 3 Rocket 3.9 19:29:48 18° S 19:33:37 63° WSW 19:38:48 10° NNW
STARLINK-1113 3.7 19:31:30 10° NW 19:35:37 63° NNE 19:35:47 62° NE
Cosmos 1825 Rocket 3.4 19:33:25 10° N 19:37:51 68° E 19:37:53 68° E
STARLINK-1119 3.6 19:36:28 10° NW 19:40:34 68° NNE 19:40:34 68° NNE
Cosmos 2369 Rocket 2.1 19:36:09 10° NNW 19:41:53 79° ENE 19:43:14 53° SE
Cosmos 1726 2.4 19:42:56 64° NNW 19:42:56 64° NNW 19:46:12 10° N
Cosmos 2327 Rocket 4.5 19:36:42 10° N 19:42:57 65° E 19:44:39 47° SE
STARLINK-1114 3.7 19:41:29 10° NW 19:45:24 71° N 19:45:24 71° N
Aureole 2 Rocket 3.3 19:43:16 10° NNW 19:45:56 49° NNW 19:45:56 49° NNW
Cosmos 1758 Rocket 3.5 19:43:14 10° N 19:47:37 79° W 19:47:54 74° SW
Cosmos 2263 4.1 19:42:18 10° NNW 19:47:54 65° ENE 19:48:35 59° E
NOSS 3-3 (A) 3.7 19:42:26 10° SSW 19:48:13 81° SE 19:54:45 10° NE
NOSS 3-3 (C) 3.7 19:42:33 10° SSW 19:48:19 80° SE 19:54:51 10° NE
STARLINK-1130 (DARKSAT) 3.8 19:46:26 10° NW 19:50:10 68° NNW 19:50:10 68° NNW
Terra 3.8 19:53:53 17° NE 19:53:53 17° NE 19:55:47 10° NNE
Meteor 2-17 Rocket 4.4 19:46:45 10° N 19:52:52 65° E 19:53:45 58° ESE
Cosmos 1953 Rocket 3.9 19:49:41 10° N 19:53:21 55° NNE 19:53:21 55° NNE
STARLINK-1084 4.0 19:51:24 10° NW 19:54:56 63° NW 19:54:56 63° NW
Spot 2 Rocket 3.4 19:55:41 68° ENE 19:55:41 68° ENE 20:00:47 10° N
Cosmos 2184 Rocket 4.1 19:50:29 10° NNW 19:56:48 74° W 19:59:37 35° S
Cosmos 1606 Rocket 3.7 19:59:07 68° NNW 19:59:07 68° NNW 20:03:05 10° N
SPOT 1/Viking Rocket 4.1 20:00:50 46° NE 20:00:50 46° NE 20:05:13 10° N
STARLINK-1098 4.2 19:56:23 10° NW 19:59:43 56° WNW 19:59:43 56° WNW
Cosmos 1943 Rocket 2.7 19:57:47 10° NNW 20:03:10 53° WSW 20:04:35 42° SSW
Cosmos 1943 3.0 20:01:04 40° SSW 20:03:13 85° ESE 20:08:56 10° NNE
STARLINK-1123 4.4 20:01:22 10° WNW 20:04:30 50° WNW 20:04:30 50° WNW
SL-8 R/B 4.0 20:03:14 10° WNW 20:07:34 63° NNW 20:07:34 63° NNW
ATLAS 2AS CENTAUR R/B 3.1 20:05:50 10° NNW 20:13:17 52° NE 20:14:22 48° ENE
USA 245 4.0 20:15:17 77° NNW 20:15:17 77° NNW 20:20:39 10° NNW
USA 234 3.9 20:08:45 10° NE 20:15:04 53° NNW 20:21:22 10° WSW
Resurs 01 Rocket 2.8 20:16:28 35° WSW 20:16:52 36° W 20:20:56 10° NNW
Cosmos 2154 Rocket 4.0 20:11:33 10° N 20:17:56 80° W 20:18:59 63° SSW
Cosmos 2228 4.2 20:22:39 41° NW 20:22:39 41° NW 20:26:00 10° N
Cosmos 962 Rocket 4.4 20:26:00 10° N 20:31:43 76° NNE 20:31:43 76° NNE
SL-8 Rocket 4.4 20:31:55 10° N 20:37:02 54° NNE 20:37:02 54° NNE
ISS -0.4 20:35:19 10° WNW 20:35:39 12° WNW 20:35:39 12° WNW
ERS-1 Rocket 4.0 20:48:37 41° NNW 20:48:37 41° NNW 20:51:54 10° NNW
COSMOS 2455 3.9 21:11:10 10° NNW 21:15:09 42° N 21:15:09 42° N
Cosmos 2369 Rocket 4.5 21:22:01 10° WNW 21:25:03 15° W 21:25:03 15° W
Terra 4.1 21:32:45 21° NNW 21:32:45 21° NNW 21:34:27 10° NNW
NOSS 3-4 (A) 4.3 21:24:38 10° NW 21:30:08 55° WNW 21:30:08 55° WNW
NOSS 3-4 (C) 4.3 21:24:44 10° NW 21:30:15 55° WNW 21:30:15 55° WNW
ATLAS 2AS CENTAUR R/B 4.1 21:57:17 10° NW 22:01:48 32° WNW 22:01:48 32° WNW
Cosmos 1980 Rocket 4.5 22:33:38 10° N 22:35:28 19° N 22:35:28 19° N
CZ-4C R/B 4.1 22:33:17 10° NNW 22:38:44 35° NNE 22:38:44 35° NNE
SL-16 R/B 4.1 23:52:44 30° NNE 23:52:44 30° NNE 23:56:34 10° N
